Regional Weather Roundup
Issued by NWS

Home | Current Version | Previous Version | Text Only | Print | Product List | Glossary On
Versions: 1 2 3 4 5 6 7 8 9 10 11 12 13 14 15 16 17 18 19 20 21 22 23 24 25 26 27 28 29 30 31 32 33 34 35 36 37 38 39 40 41 42 43 44 45 46 47 48 49 50
000
ASCA44 KEWX 251520
RWRMX

LATIN AMERICA AND CARIBBEAN REGIONAL WEATHER ROUNDUP
NATIONAL WEATHER SERVICE AUSTIN/SAN ANTONIO TX
1000 AM CDT SAT OCT 25 2014

NOTE: "FAIR" INDICATED FEW OR NO CLOUDS BELOW 12,000 FEET WITH NO
SIGNIFICANT WEATHER AND/OR OBSTRUCTIONS TO VISIBILITY.

BAJA CALIFORNIA

CITY           SKY/WX    TMP DP  RH WIND       PRES   REMARKS
LORETO         SUNNY     82  63  51 NW12      29.95
LA PAZ         SUNNY     73  61  64 S10       30.01
MEXICALI       PTSUNNY   73  48  40 SW6       29.95
S.J. DEL CABO  SUNNY     81  68  65 CALM      30.00
TIJUANA        PTSUNNY   66  45  45 S5        30.05R

NORTHWESTERN MEXICO

CITY           SKY/WX    TMP DP  RH WIND       PRES   REMARKS
CULIACAN       SUNNY     81  75  83 CALM      29.96
DURANGO        SUNNY     55  50  82 CALM      30.43R
GUAYMAS        SUNNY     82  72  69 CALM      29.93
HERMOSILLO     SUNNY     77  61  57 CALM      30.02
CD. JUAREZ     SUNNY     61  52  72 CALM      30.20
LOS MOCHIS     SUNNY     81  73  78 NW6       29.97
OBREGON        SUNNY     77  68  73 CALM      29.94

NORTHEASTERN MEXICO

CITY           SKY/WX    TMP DP  RH WIND       PRES   REMARKS
CHIHUAHUA      SUNNY     59  52  77 S3        30.32
MATAMOROS      SUNNY     73  70  88 CALM      30.18
MONCLOVA       SUNNY    N/A N/A N/A CALM      30.20R
MONTERREY      SUNNY     70  64  83 NW5       30.20R
NUEVO LAREDO   SUNNY     72  63  73 CALM      30.17
PIEDRAS NEGRAS SUNNY     73  59  60 SE6       30.19R
REYNOSA        SUNNY     72  63  73 NW2       30.17  FOG
SALTILLO       SUNNY     63  48  59 CALM      30.35R
TORREON        SUNNY     66  55  68 CALM      30.28R
CD. VICTORIA   SUNNY     70  66  88 N3        30.19

WESTERN MEXICO

CITY           SKY/WX    TMP DP  RH WIND       PRES   REMARKS
AGUASCALIENTES SUNNY     57  48  72 N8        30.43
DEL BAJIO      SUNNY     64  48  55 CALM      30.43R
GUADALAJARA    SUNNY     64  52  63 NE7       30.34
MANZANILLO     MOSUNNY   81  79  94 CALM      29.88R
MAZATLAN       MOSUNNY   75  73  94 NE8       29.94R
P. VALLARTA    MOSUNNY   82  77  83 NE3       29.93R HX  91
ZACATECAS      SUNNY     54  46  76 CALM      30.44R

CENTRAL MEXICO

CITY           SKY/WX    TMP DP  RH WIND       PRES   REMARKS
CUERNAVACA     MOSUNNY   70  57  64 CALM      30.26R
MEXICO CITY    PTSUNNY   59  46  63 NE13      30.45R
MORELIA        MOSUNNY   61  52  72 N3        30.37
POZA RICA      MOSUNNY   79  73  83 N5        30.19R
PUEBLA         MOSUNNY   59  45  58 N14       30.44R
QUERETARO      PTSUNNY   59  50  72 SE3       30.42R
S. LUIS POTOSI MOSUNNY   57  50  77 CALM      30.41R
TAMPICO        SUNNY     77  68  73 NW7       30.16R
TOLUCA         MOSUNNY   52  39  62 W5        30.49R FOG

SOUTHERN MEXICO

CITY           SKY/WX    TMP DP  RH WIND       PRES   REMARKS
ACAPULCO       MOSUNNY   82  77  83 CALM      29.93R HX  91
B. DE HUATULCO MOSUNNY   79  68  69 CALM      29.98
P. ESCONDIDO   SUNNY     79  72  78 NE9       30.04S
VERACRUZ       MOSUNNY   79  68  69 W3        30.13R
ZIHUATANEJO    MOSUNNY   84  73  70 CALM      29.94R HX  91

YUCATAN PENINSULA

CITY           SKY/WX    TMP DP  RH WIND       PRES   REMARKS
CAMPECHE       MOSUNNY   79  70  73 N12       30.02R
CANCUN         PTSUNNY   81  66  61 N7        29.98R
CHETUMAL       PTSUNNY   77  72  83 N7        30.00R
CD. DEL CARMEN CLOUDY    82  70  65 NE14      30.05
COZUMEL        PTSUNNY   77  68  73 N10       29.97S
MERIDA         MOSUNNY   79  68  69 N10       30.04R
MINATITLAN     PTSUNNY   77  68  73 CALM      30.09
TAPACHULA      MOSUNNY   82  77  83 CALM      29.93R HX  91
TUX. GUTIERREZ PTSUNNY   75  64  69 NE5       30.10S
VILLAHERMOSA   CLOUDY    75  73  94 CALM      30.10R

CENTRAL AMERICA

CITY           SKY/WX    TMP DP  RH WIND       PRES   REMARKS
BELIZE CITY    PTSUNNY   79  72  78 MISG        N/A
MANAGUA        MOSUNNY   84  75  74 N7        29.86S HX  92

CARIBBEAN

CITY           SKY/WX    TMP DP  RH WIND       PRES   REMARKS
ARUBA          MOSUNNY   90  75  62 E17       29.86S HX 100
KINGSTON       MOSUNNY   86  75  70 SE8       29.89S HX  95
NASSAU         PTSUNNY   82  72  69 NE18      29.87S
SAN JUAN       MOSUNNY   88  75  66 W5        29.93F HX  97
SANTO DOMINGO  MOSUNNY   86  75  70 S9        29.92S HX  95
ST. CROIX      MOSUNNY   88  75  66 E10       29.96  HX  97
ST. KITTS      MOSUNNY   86  77  74 E8        29.94F HX  97
ST. MAARTEN    MOSUNNY   86  75  70 SE10      29.94S HX  95

$$




USA.gov is the U.S. government's official web portal to all federal, state and local government web resources and services.